Regional Weather Roundup
Issued by NWS

Home | Current Version | Previous Version | Text Only | Print | Product List | Glossary Off
Versions: 1 2 3 4 5 6 7 8 9 10 11 12 13 14 15 16 17 18 19 20 21 22 23 24 25 26 27 28 29 30 31 32 33 34 35 36 37 38 39 40 41 42 43 44 45 46 47 48 49 50

000
ASUS43 KLMK 240102
RWRKY
KENTUCKY REGIONAL WEATHER ROUNDUP
NATIONAL WEATHER SERVICE LOUISVILLE KY
800 PM EST TUE JAN 23 2018

NOTE "FAIR" INDICATES FEW OR NO CLOUDS BELOW 12,000 FEET
WITH NO SIGNIFICANT WEATHER AND/OR OBSTRUCTIONS TO VISIBILITY.

KYZ001>023-026-027-061>063-070>075-240200-
WESTERN AND SOUTH CENTRAL KENTUCKY

CITY           SKY/WX    TMP DP  RH WIND       PRES   REMARKS
PADUCAH        CLOUDY    38  28  67 N3        30.22R
HENDERSON      CLOUDY    35  28  75 NW10      30.21R WCI  27
OWENSBORO      CLOUDY    35  29  78 W13       30.20R WCI  26
HOPKINSVILLE   CLOUDY    39  29  68 W9        30.20R WCI  33
BOWLING GREEN  CLOUDY    38  34  85 NW9       30.19R WCI  31
GLASGOW        NOT AVBL
$$

KYZ024-025-028>034-038-045-046-053-240200-
NORTH CENTRAL KENTUCKY

CITY           SKY/WX    TMP DP  RH WIND       PRES   REMARKS
LOUISVILLE/SDF CLOUDY    36  32  85 W15       30.13R WCI  27
LOUISVILLE/LOU CLOUDY    36  32  85 SW12      30.13R WCI  28
FORT KNOX      NOT AVBL
$$

KYZ035>037-039>044-047>052-055>060-089>105-240200-
NORTHEAST KENTUCKY

CITY           SKY/WX    TMP DP  RH WIND       PRES   REMARKS
LEXINGTON      CLOUDY    38  30  73 W10       30.09R WCI  31
COVINGTON      LGT RAIN  36  32  85 W17G25    30.04R WCI  26
FRANKFORT      CLOUDY    37  30  75 W14G22    30.09R WCI  28
$$

KYZ054-064>069-076>088-106>120-240200-
SOUTHEAST KENTUCKY

CITY           SKY/WX    TMP DP  RH WIND       PRES   REMARKS
JACKSON        CLOUDY    38  29  70 VRB6G21   30.06R WCI  33
LONDON         CLOUDY    40  30  67 W8        30.09R WCI  34
SOMERSET       NOT AVBL
MIDDLESBORO    CLOUDY    42  31  64 NW6       30.09R
MONTICELLO     NOT AVBL
$$




USA.gov is the U.S. government's official web portal to all federal, state and local government web resources and services.